• In Belgium
  • List of Countries
  • For 7 days
  • Water Temperature
  • Satellite Maps
  • Weather Map
  • Weather Widgets
  • user-avatar
    Login

    Hourly Weather Kortrijk

    Today, 12 December, Tuesday

    Time Temperature Precipitation Wind Pressure Humidity
    00:00 +1°C° 0 mm 6 mps 743 mmHg 78%
    01:00 +1°C° 0.1 mm 5 mps 744 mmHg 80%
    02:00 +1°C° 0.1 mm 5 mps 745 mmHg 82%
    03:00 0°C° 0.1 mm 4 mps 746 mmHg 84%
    04:00 0°C° 0.3 mm 4 mps 747 mmHg 85%
    05:00 0°C° 0.3 mm 5 mps 748 mmHg 87%
    06:00 0°C° 0 mm 5 mps 750 mmHg 88%
    07:00 0°C° 0.2 mm 4 mps 750 mmHg 88%
    08:00 0°C° 0.2 mm 4 mps 751 mmHg 87%
    09:00 0°C° 0.2 mm 4 mps 752 mmHg 87%
    10:00 +1°C° 0.2 mm 4 mps 753 mmHg 84%
    11:00 +2°C° 0.2 mm 5 mps 753 mmHg 81%
    12:00 +2°C° 0 mm 5 mps 754 mmHg 79%
    13:00 +3°C° 0 mm 4 mps 755 mmHg 80%
    14:00 +1°C° 0 mm 4 mps 755 mmHg 82%
    15:00 +2°C° 0 mm 3 mps 755 mmHg 83%
    16:00 +2°C° 0 mm 3 mps 756 mmHg 85%
    17:00 +1°C° 0 mm 3 mps 756 mmHg 86%
    18:00 -1°C° 0 mm 4 mps 756 mmHg 88%
    19:00 -1°C° 0 mm 4 mps 756 mmHg 87%
    20:00 -1°C° 0 mm 4 mps 757 mmHg 87%
    21:00 -1°C° 0 mm 5 mps 757 mmHg 86%
    22:00 0°C° 0 mm 5 mps 756 mmHg 85%
    23:00 -1°C° 0 mm 6 mps 756 mmHg 85%

    Tomorrow, 13 December, Wednesday

    Time Temperature Precipitation Wind Pressure Humidity
    00:00 -1°C° 0 mm 7 mps 756 mmHg 84%
    01:00 -1°C° 0 mm 7 mps 755 mmHg 84%
    02:00 0°C° 0 mm 8 mps 754 mmHg 85%
    03:00 0°C° 0 mm 8 mps 754 mmHg 85%
    04:00 0°C° 0.4 mm 9 mps 753 mmHg 85%
    05:00 +1°C° 0.4 mm 10 mps 752 mmHg 85%
    06:00 +1°C° 0.4 mm 10 mps 751 mmHg 85%
    07:00 +2°C° 0.6 mm 10 mps 751 mmHg 86%
    08:00 +3°C° 0.6 mm 9 mps 750 mmHg 86%
    09:00 +3°C° 0.6 mm 9 mps 750 mmHg 87%
    10:00 +5°C° 0.6 mm 8 mps 749 mmHg 88%
    11:00 +5°C° 0.6 mm 7 mps 749 mmHg 90%
    12:00 +5°C° 0.6 mm 6 mps 748 mmHg 91%
    13:00 +5°C° 0.6 mm 6 mps 747 mmHg 91%
    14:00 +5°C° 0.6 mm 7 mps 746 mmHg 90%
    15:00 +6°C° 0.6 mm 7 mps 745 mmHg 90%
    16:00 +6°C° 1.1 mm 8 mps 744 mmHg 89%
    17:00 +6°C° 1.1 mm 10 mps 743 mmHg 87%
    18:00 +6°C° 1.1 mm 11 mps 742 mmHg 86%
    19:00 +5°C° 1.6 mm 10 mps 742 mmHg 80%
    20:00 +5°C° 1.6 mm 9 mps 742 mmHg 74%
    21:00 +4°C° 1.6 mm 7 mps 742 mmHg 68%
    22:00 +3°C° 0.8 mm 9 mps 742 mmHg 67%
    23:00 +2°C° 0.8 mm 11 mps 743 mmHg 65%

    Day after tomorrow, 14 December, Thursday

    Time Temperature Precipitation Wind Pressure Humidity
    00:00 +1°C° 0.8 mm 13 mps 743 mmHg 64%
    01:00 +2°C° 0.2 mm 12 mps 744 mmHg 64%
    02:00 +1°C° 0.2 mm 11 mps 745 mmHg 63%
    03:00 +1°C° 0.2 mm 9 mps 746 mmHg 63%
    04:00 +1°C° 0 mm 9 mps 746 mmHg 65%
    05:00 +1°C° 0 mm 8 mps 746 mmHg 67%
    06:00 +2°C° 0 mm 7 mps 746 mmHg 69%
    07:00 +2°C° 0.2 mm 7 mps 746 mmHg 70%
    08:00 +2°C° 0.2 mm 7 mps 746 mmHg 72%
    09:00 +3°C° 0.2 mm 7 mps 746 mmHg 74%
    10:00 +3°C° 0.1 mm 7 mps 745 mmHg 73%
    11:00 +4°C° 0.1 mm 7 mps 745 mmHg 73%
    12:00 +4°C° 0.1 mm 7 mps 744 mmHg 72%
    13:00 +4°C° 1.8 mm 6 mps 743 mmHg 78%
    14:00 +3°C° 1.8 mm 5 mps 741 mmHg 83%
    15:00 +3°C° 1.8 mm 5 mps 740 mmHg 89%
    16:00 +3°C° 0.6 mm 5 mps 740 mmHg 87%
    17:00 +3°C° 0.6 mm 6 mps 740 mmHg 85%
    18:00 +3°C° 0.6 mm 6 mps 739 mmHg 83%
    19:00 +3°C° 0.2 mm 6 mps 740 mmHg 80%
    20:00 +2°C° 0.2 mm 6 mps 741 mmHg 77%
    21:00 +2°C° 0.2 mm 6 mps 741 mmHg 74%
    22:00 +1°C° 0 mm 5 mps 741 mmHg 75%
    23:00 +1°C° 0 mm 5 mps 742 mmHg 76%

    15 December, Friday

    Time Temperature Precipitation Wind Pressure Humidity
    00:00 0°C° 0 mm 4 mps 742 mmHg 77%
    01:00 0°C° 0.1 mm 4 mps 742 mmHg 81%
    02:00 +1°C° 0.1 mm 3 mps 742 mmHg 85%
    03:00 +1°C° 0.1 mm 3 mps 742 mmHg 88%
    04:00 +1°C° 0.5 mm 3 mps 742 mmHg 90%
    05:00 +3°C° 0.5 mm 2 mps 742 mmHg 91%
    06:00 +3°C° 0.5 mm 2 mps 742 mmHg 92%
    07:00 +3°C° 0.1 mm 2 mps 743 mmHg 92%
    08:00 +3°C° 0.1 mm 2 mps 743 mmHg 92%
    09:00 +3°C° 0.1 mm 2 mps 744 mmHg 91%
    10:00 +4°C° 0 mm 2 mps 744 mmHg 86%
    11:00 +5°C° 0 mm 2 mps 745 mmHg 80%
    12:00 +6°C° 0 mm 2 mps 746 mmHg 75%
    13:00 +5°C° 0 mm 2 mps 746 mmHg 76%
    14:00 +5°C° 0 mm 2 mps 747 mmHg 77%
    15:00 +4°C° 0 mm 2 mps 747 mmHg 78%
    16:00 +4°C° 0 mm 2 mps 748 mmHg 80%
    17:00 +2°C° 0 mm 3 mps 749 mmHg 82%
    18:00 +2°C° 0 mm 3 mps 750 mmHg 84%
    19:00 +2°C° 0 mm 3 mps 751 mmHg 85%
    20:00 +1°C° 0 mm 4 mps 751 mmHg 86%
    21:00 +1°C° 0 mm 4 mps 752 mmHg 87%
    22:00 +1°C° 0.1 mm 4 mps 753 mmHg 88%
    23:00 +1°C° 0.1 mm 4 mps 753 mmHg 89%

    16 December, Saturday

    Time Temperature Precipitation Wind Pressure Humidity
    00:00 +1°C° 0.1 mm 4 mps 753 mmHg 90%
    01:00 +1°C° 0.3 mm 4 mps 754 mmHg 90%
    02:00 +1°C° 0.3 mm 4 mps 754 mmHg 90%
    03:00 +2°C° 0.3 mm 5 mps 754 mmHg 91%
    04:00 +1°C° 0.2 mm 5 mps 754 mmHg 89%
    05:00 +1°C° 0.2 mm 5 mps 755 mmHg 87%
    06:00 +1°C° 0.2 mm 5 mps 755 mmHg 85%
    07:00 +1°C° 0 mm 4 mps 756 mmHg 83%
    08:00 +1°C° 0 mm 4 mps 756 mmHg 82%
    09:00 +1°C° 0 mm 4 mps 757 mmHg 81%
    10:00 +1°C° 0 mm 5 mps 757 mmHg 78%
    11:00 +2°C° 0 mm 5 mps 757 mmHg 74%
    12:00 +3°C° 0 mm 6 mps 758 mmHg 71%
    13:00 +2°C° 0 mm 5 mps 758 mmHg 73%
    14:00 +2°C° 0 mm 5 mps 758 mmHg 75%
    15:00 +3°C° 0 mm 4 mps 759 mmHg 77%
    16:00 +1°C° 0.1 mm 4 mps 759 mmHg 79%
    17:00 +1°C° 0.1 mm 4 mps 760 mmHg 81%
    18:00 +1°C° 0.1 mm 4 mps 761 mmHg 83%
    19:00 +1°C° 0.1 mm 4 mps 761 mmHg 84%
    20:00 +1°C° 0.1 mm 4 mps 762 mmHg 84%
    21:00 +1°C° 0.1 mm 4 mps 762 mmHg 85%
    22:00 +1°C° 0.1 mm 4 mps 763 mmHg 85%
    23:00 +1°C° 0.1 mm 4 mps 763 mmHg 86%

    17 December, Sunday

    Time Temperature Precipitation Wind Pressure Humidity
    00:00 +1°C° 0.1 mm 4 mps 764 mmHg 86%
    01:00 0°C° 0.1 mm 4 mps 764 mmHg 86%
    02:00 0°C° 0.1 mm 4 mps 764 mmHg 86%
    03:00 0°C° 0.1 mm 4 mps 765 mmHg 87%
    04:00 +1°C° 0 mm 3 mps 765 mmHg 87%
    05:00 0°C° 0 mm 3 mps 765 mmHg 87%
    06:00 0°C° 0 mm 3 mps 766 mmHg 87%
    07:00 0°C° 0 mm 3 mps 766 mmHg 85%
    08:00 +1°C° 0 mm 3 mps 767 mmHg 84%
    09:00 +1°C° 0 mm 3 mps 767 mmHg 82%
    10:00 +1°C° 0 mm 4 mps 767 mmHg 77%
    11:00 +3°C° 0 mm 4 mps 767 mmHg 73%
    12:00 +4°C° 0 mm 4 mps 767 mmHg 68%
    13:00 +3°C° 0 mm 4 mps 767 mmHg 70%
    14:00 +3°C° 0 mm 4 mps 767 mmHg 72%
    15:00 +3°C° 0 mm 4 mps 767 mmHg 74%
    16:00 +1°C° 0 mm 4 mps 767 mmHg 76%
    17:00 +1°C° 0 mm 4 mps 768 mmHg 79%
    18:00 0°C° 0 mm 4 mps 768 mmHg 82%
    19:00 0°C° 0 mm 5 mps 768 mmHg 81%
    20:00 0°C° 0 mm 5 mps 768 mmHg 81%
    21:00 0°C° 0 mm 5 mps 768 mmHg 81%
    22:00 0°C° 0 mm 5 mps 768 mmHg 80%
    23:00 0°C° 0 mm 5 mps 767 mmHg 80%
    Show more